Time,TemperatureF,DewpointF,PressureIn,WindDirection,WindDirectionDegrees,WindSpeedMPH,WindSpeedGustMPH,Humidity,HourlyPrecipIn,Conditions,Clouds,dailyrainin,SoftwareType,DateUTC
2017-06-24 00:12:00,66.9,62.0,29.81,ESE,107,0.0,-999.0,83,-99.99,,,0.00,weatherlink.com 1.10,2017-06-24 04:12:00,
2017-06-24 00:27:00,66.5,61.0,29.82,ESE,107,0.0,-999.0,83,-99.99,,,0.00,weatherlink.com 1.10,2017-06-24 04:27:00,
2017-06-24 00:41:00,66.1,61.0,29.82,ESE,107,0.0,-999.0,83,-99.99,,,0.00,weatherlink.com 1.10,2017-06-24 04:41:00,
2017-06-24 00:56:00,65.8,60.0,29.82,ESE,106,0.0,-999.0,83,-99.99,,,0.00,weatherlink.com 1.10,2017-06-24 04:56:00,
2017-06-24 01:10:00,65.6,60.0,29.82,ESE,106,0.0,-999.0,83,-99.99,,,0.00,weatherlink.com 1.10,2017-06-24 05:10:00,
2017-06-24 01:24:00,65.5,60.0,29.82,ESE,107,0.0,-999.0,83,-99.99,,,0.00,weatherlink.com 1.10,2017-06-24 05:24:00,
2017-06-24 01:39:00,65.3,60.0,29.81,ESE,107,0.0,-999.0,83,-99.99,,,0.00,weatherlink.com 1.10,2017-06-24 05:39:00,
2017-06-24 01:53:00,65.1,60.0,29.81,ESE,106,0.0,-999.0,83,-99.99,,,0.00,weatherlink.com 1.10,2017-06-24 05:53:00,
2017-06-24 02:08:00,64.9,60.0,29.81,ESE,107,0.0,-999.0,83,-99.99,,,0.00,weatherlink.com 1.10,2017-06-24 06:08:00,
2017-06-24 02:22:00,64.7,59.0,29.81,ESE,107,0.0,-999.0,83,-99.99,,,0.00,weatherlink.com 1.10,2017-06-24 06:22:00,
2017-06-24 02:36:00,64.5,59.0,29.82,ESE,107,0.0,-999.0,83,-99.99,,,0.00,weatherlink.com 1.10,2017-06-24 06:36:00,
2017-06-24 02:51:00,64.3,59.0,29.82,ESE,107,0.0,-999.0,83,-99.99,,,0.00,weatherlink.com 1.10,2017-06-24 06:51:00,
2017-06-24 03:05:00,64.1,59.0,29.82,ESE,107,0.0,-999.0,83,-99.99,,,0.00,weatherlink.com 1.10,2017-06-24 07:05:00,
2017-06-24 03:20:00,63.9,59.0,29.81,ESE,106,0.0,-999.0,83,-99.99,,,0.00,weatherlink.com 1.10,2017-06-24 07:20:00,
2017-06-24 03:34:00,63.8,59.0,29.82,ESE,106,0.0,-999.0,83,-99.99,,,0.00,weatherlink.com 1.10,2017-06-24 07:34:00,
2017-06-24 03:48:00,63.7,58.0,29.82,ESE,107,0.0,-999.0,83,-99.99,,,0.00,weatherlink.com 1.10,2017-06-24 07:48:00,
2017-06-24 04:03:00,63.6,58.0,29.83,ESE,107,0.0,-999.0,83,-99.99,,,0.00,weatherlink.com 1.10,2017-06-24 08:03:00,
2017-06-24 04:17:00,63.5,58.0,29.83,ESE,107,0.0,-999.0,83,-99.99,,,0.00,weatherlink.com 1.10,2017-06-24 08:17:00,
2017-06-24 04:32:00,63.4,58.0,29.83,ESE,107,0.0,-999.0,83,-99.99,,,0.00,weatherlink.com 1.10,2017-06-24 08:32:00,
2017-06-24 04:46:00,63.4,58.0,29.83,ESE,106,0.0,-999.0,83,-99.99,,,0.00,weatherlink.com 1.10,2017-06-24 08:46:00,
2017-06-24 05:00:00,63.2,58.0,29.84,ESE,106,0.0,-999.0,83,-99.99,,,0.00,weatherlink.com 1.10,2017-06-24 09:00:00,
2017-06-24 05:15:00,63.0,58.0,29.84,ESE,107,0.0,-999.0,83,-99.99,,,0.00,weatherlink.com 1.10,2017-06-24 09:15:00,
2017-06-24 05:29:00,62.8,58.0,29.84,ESE,107,0.0,-999.0,83,-99.99,,,0.00,weatherlink.com 1.10,2017-06-24 09:29:00,
2017-06-24 05:44:00,62.7,57.0,29.85,ESE,107,0.0,-999.0,83,-99.99,,,0.00,weatherlink.com 1.10,2017-06-24 09:44:00,
2017-06-24 05:58:00,62.6,57.0,29.85,ESE,106,0.0,-999.0,83,-99.99,,,0.01,weatherlink.com 1.10,2017-06-24 09:58:00,
2017-06-24 06:12:00,62.5,57.0,29.86,ESE,107,0.0,-999.0,83,-99.99,,,0.01,weatherlink.com 1.10,2017-06-24 10:12:00,
2017-06-24 06:27:00,62.5,57.0,29.86,ESE,107,0.0,-999.0,83,-99.99,,,0.01,weatherlink.com 1.10,2017-06-24 10:27:00,
2017-06-24 06:41:00,62.4,57.0,29.87,ESE,105,0.0,-999.0,83,-99.99,,,0.01,weatherlink.com 1.10,2017-06-24 10:41:00,
2017-06-24 06:56:00,62.4,57.0,29.87,North,5,0.0,-999.0,83,-99.99,,,0.01,weatherlink.com 1.10,2017-06-24 10:56:00,
2017-06-24 07:10:00,62.4,57.0,29.88,North,5,0.0,-999.0,83,-99.99,,,0.01,weatherlink.com 1.10,2017-06-24 11:10:00,
2017-06-24 07:25:00,62.5,57.0,29.88,North,5,0.0,-999.0,83,-99.99,,,0.01,weatherlink.com 1.10,2017-06-24 11:25:00,
2017-06-24 07:39:00,62.8,58.0,29.89,NNE,12,0.0,-999.0,83,-99.99,,,0.01,weatherlink.com 1.10,2017-06-24 11:39:00,
2017-06-24 07:53:00,62.9,58.0,29.89,North,9,0.0,-999.0,83,-99.99,,,0.01,weatherlink.com 1.10,2017-06-24 11:53:00,
2017-06-24 08:08:00,63.2,58.0,29.90,North,9,0.0,-999.0,84,-99.99,,,0.01,weatherlink.com 1.10,2017-06-24 12:08:00,
2017-06-24 08:23:00,63.3,58.0,29.90,North,9,0.0,-999.0,84,-99.99,,,0.01,weatherlink.com 1.10,2017-06-24 12:23:00,
2017-06-24 08:37:00,63.4,58.0,29.91,NW,309,0.0,-999.0,84,-99.99,,,0.01,weatherlink.com 1.10,2017-06-24 12:37:00,
2017-06-24 08:51:00,63.6,59.0,29.92,NW,309,0.0,-999.0,84,-99.99,,,0.01,weatherlink.com 1.10,2017-06-24 12:51:00,
2017-06-24 09:06:00,64.2,59.0,29.92,NW,309,0.0,-999.0,84,-99.99,,,0.01,weatherlink.com 1.10,2017-06-24 13:06:00,
2017-06-24 09:20:00,64.5,60.0,29.93,North,10,0.0,-999.0,84,-99.99,,,0.01,weatherlink.com 1.10,2017-06-24 13:20:00,
2017-06-24 09:35:00,64.7,60.0,29.93,North,360,0.0,-999.0,84,-99.99,,,0.01,weatherlink.com 1.10,2017-06-24 13:35:00,
2017-06-24 09:49:00,65.1,60.0,29.94,NNE,17,3.0,-999.0,84,-99.99,,,0.01,weatherlink.com 1.10,2017-06-24 13:49:00,
2017-06-24 10:03:00,65.4,60.0,29.93,NNE,26,0.0,-999.0,83,-99.99,,,0.01,weatherlink.com 1.10,2017-06-24 14:03:00,
2017-06-24 10:18:00,65.9,61.0,29.94,NW,317,0.0,-999.0,83,-99.99,,,0.01,weatherlink.com 1.10,2017-06-24 14:18:00,
2017-06-24 10:32:00,66.8,61.0,29.94,NW,317,0.0,-999.0,83,-99.99,,,0.01,weatherlink.com 1.10,2017-06-24 14:32:00,
2017-06-24 10:47:00,68.0,63.0,29.94,NW,317,0.0,-999.0,83,-99.99,,,0.01,weatherlink.com 1.10,2017-06-24 14:47:00,
2017-06-24 11:01:00,68.6,63.0,29.95,North,355,0.0,-999.0,83,-99.99,,,0.01,weatherlink.com 1.10,2017-06-24 15:01:00,
2017-06-24 11:15:00,70.4,66.0,29.94,SE,134,0.0,-999.0,85,-99.99,,,0.01,weatherlink.com 1.10,2017-06-24 15:15:00,
2017-06-24 11:30:00,71.9,65.0,29.94,SSE,147,0.0,-999.0,79,-99.99,,,0.01,weatherlink.com 1.10,2017-06-24 15:30:00,
2017-06-24 11:44:00,72.9,64.0,29.94,WNW,298,0.0,-999.0,74,-99.99,,,0.01,weatherlink.com 1.10,2017-06-24 15:44:00,
2017-06-24 11:59:00,73.5,64.0,29.94,ENE,61,0.0,-999.0,72,-99.99,,,0.01,weatherlink.com 1.10,2017-06-24 15:59:00,
2017-06-24 12:13:00,74.0,63.0,29.95,North,355,1.0,-999.0,68,-99.99,,,0.01,weatherlink.com 1.10,2017-06-24 16:13:00,
2017-06-24 12:27:00,74.9,63.0,29.95,NNE,15,0.0,-999.0,67,-99.99,,,0.01,weatherlink.com 1.10,2017-06-24 16:27:00,
2017-06-24 12:42:00,76.0,64.0,29.95,North,349,0.0,-999.0,66,-99.99,,,0.01,weatherlink.com 1.10,2017-06-24 16:42:00,
2017-06-24 13:16:00,77.3,62.0,29.95,NW,306,0.0,-999.0,60,-99.99,,,0.01,weatherlink.com 1.10,2017-06-24 17:16:00,
2017-06-24 13:31:00,77.1,62.0,29.95,WNW,295,0.0,-999.0,59,-99.99,,,0.01,weatherlink.com 1.10,2017-06-24 17:31:00,
2017-06-24 13:45:00,76.6,62.0,29.95,North,360,1.0,-999.0,61,-99.99,,,0.01,weatherlink.com 1.10,2017-06-24 17:45:00,
2017-06-24 13:59:00,76.5,62.0,29.95,NW,323,0.0,-999.0,61,-99.99,,,0.01,weatherlink.com 1.10,2017-06-24 17:59:00,
2017-06-24 14:14:00,77.1,62.0,29.95,NNW,348,0.0,-999.0,60,-99.99,,,0.01,weatherlink.com 1.10,2017-06-24 18:14:00,
2017-06-24 14:28:00,77.3,62.0,29.96,NNW,344,0.0,-999.0,60,-99.99,,,0.01,weatherlink.com 1.10,2017-06-24 18:28:00,
2017-06-24 14:42:00,78.7,62.0,29.96,NNW,342,3.0,-999.0,56,-99.99,,,0.01,weatherlink.com 1.10,2017-06-24 18:42:00,
2017-06-24 14:57:00,77.8,61.0,29.96,WNW,302,0.0,-999.0,56,-99.99,,,0.01,weatherlink.com 1.10,2017-06-24 18:57:00,
2017-06-24 15:11:00,78.2,61.0,29.96,NW,317,1.0,-999.0,55,-99.99,,,0.01,weatherlink.com 1.10,2017-06-24 19:11:00,
2017-06-24 15:26:00,78.2,60.0,29.96,NW,309,0.0,-999.0,54,-99.99,,,0.01,weatherlink.com 1.10,2017-06-24 19:26:00,
2017-06-24 15:40:00,78.6,62.0,29.96,WNW,303,0.0,-999.0,56,-99.99,,,0.01,weatherlink.com 1.10,2017-06-24 19:40:00,
2017-06-24 15:55:00,78.8,62.0,29.96,North,10,0.0,-999.0,56,-99.99,,,0.01,weatherlink.com 1.10,2017-06-24 19:55:00,
2017-06-24 16:09:00,78.4,60.0,29.96,NNW,329,0.0,-999.0,53,-99.99,,,0.01,weatherlink.com 1.10,2017-06-24 20:09:00,
2017-06-24 16:23:00,76.6,60.0,29.96,WNW,287,0.0,-999.0,57,-99.99,,,0.01,weatherlink.com 1.10,2017-06-24 20:23:00,
2017-06-24 16:38:00,76.9,61.0,29.96,ESE,105,1.0,-999.0,58,-99.99,,,0.01,weatherlink.com 1.10,2017-06-24 20:38:00,
2017-06-24 16:52:00,77.3,60.0,29.95,NW,307,0.0,-999.0,56,-99.99,,,0.01,weatherlink.com 1.10,2017-06-24 20:52:00,
2017-06-24 17:07:00,77.8,59.0,29.95,NW,324,0.0,-999.0,53,-99.99,,,0.01,weatherlink.com 1.10,2017-06-24 21:07:00,
2017-06-24 17:21:00,77.0,61.0,29.95,NNW,340,0.0,-999.0,57,-99.99,,,0.01,weatherlink.com 1.10,2017-06-24 21:21:00,
2017-06-24 17:35:00,76.4,60.0,29.95,NW,309,2.0,-999.0,56,-99.99,,,0.01,weatherlink.com 1.10,2017-06-24 21:35:00,
2017-06-24 17:50:00,76.4,59.0,29.95,WNW,290,0.0,-999.0,55,-99.99,,,0.01,weatherlink.com 1.10,2017-06-24 21:50:00,
2017-06-24 18:04:00,76.3,59.0,29.95,SE,132,0.0,-999.0,56,-99.99,,,0.01,weatherlink.com 1.10,2017-06-24 22:04:00,
2017-06-24 18:19:00,76.0,60.0,29.95,North,360,0.0,-999.0,57,-99.99,,,0.01,weatherlink.com 1.10,2017-06-24 22:19:00,
2017-06-24 18:33:00,75.7,58.0,29.95,NW,326,2.0,-999.0,55,-99.99,,,0.01,weatherlink.com 1.10,2017-06-24 22:33:00,
2017-06-24 18:47:00,75.5,59.0,29.95,NW,325,0.0,-999.0,57,-99.99,,,0.01,weatherlink.com 1.10,2017-06-24 22:47:00,
2017-06-24 19:02:00,75.2,59.0,29.96,NW,325,0.0,-999.0,57,-99.99,,,0.01,weatherlink.com 1.10,2017-06-24 23:02:00,
2017-06-24 19:16:00,74.9,59.0,29.96,WNW,298,0.0,-999.0,58,-99.99,,,0.01,weatherlink.com 1.10,2017-06-24 23:16:00,
2017-06-24 19:31:00,74.7,57.0,29.96,NW,309,0.0,-999.0,55,-99.99,,,0.01,weatherlink.com 1.10,2017-06-24 23:31:00,
2017-06-24 19:45:00,74.4,58.0,29.97,NNW,331,0.0,-999.0,57,-99.99,,,0.01,weatherlink.com 1.10,2017-06-24 23:45:00,
2017-06-24 19:59:00,74.2,59.0,29.97,NNW,333,0.0,-999.0,59,-99.99,,,0.01,weatherlink.com 1.10,2017-06-24 23:59:00,
2017-06-24 20:14:00,73.9,58.0,29.98,NNW,332,0.0,-999.0,58,-99.99,,,0.01,weatherlink.com 1.10,2017-06-25 00:14:00,
2017-06-24 20:29:00,73.6,58.0,29.98,NW,312,1.0,-999.0,58,-99.99,,,0.01,weatherlink.com 1.10,2017-06-25 00:29:00,
2017-06-24 20:43:00,73.0,58.0,29.98,NNE,15,0.0,-999.0,59,-99.99,,,0.01,weatherlink.com 1.10,2017-06-25 00:43:00,
2017-06-24 20:57:00,72.5,58.0,29.99,NNE,15,0.0,-999.0,60,-99.99,,,0.01,weatherlink.com 1.10,2017-06-25 00:57:00,
2017-06-24 21:12:00,71.7,58.0,30.00,NNE,14,0.0,-999.0,62,-99.99,,,0.01,weatherlink.com 1.10,2017-06-25 01:12:00,
2017-06-24 21:26:00,70.8,57.0,30.00,NNE,14,0.0,-999.0,62,-99.99,,,0.01,weatherlink.com 1.10,2017-06-25 01:26:00,
2017-06-24 21:41:00,70.1,57.0,30.01,NNE,15,0.0,-999.0,63,-99.99,,,0.01,weatherlink.com 1.10,2017-06-25 01:41:00,
2017-06-24 21:55:00,69.4,57.0,30.02,NNE,15,0.0,-999.0,64,-99.99,,,0.01,weatherlink.com 1.10,2017-06-25 01:55:00,
2017-06-24 22:09:00,68.8,57.0,30.02,NNE,14,0.0,-999.0,66,-99.99,,,0.01,weatherlink.com 1.10,2017-06-25 02:09:00,
2017-06-24 22:24:00,67.9,57.0,30.03,NNE,14,0.0,-999.0,68,-99.99,,,0.01,weatherlink.com 1.10,2017-06-25 02:24:00,
2017-06-24 22:38:00,67.2,56.0,30.04,NNE,15,0.0,-999.0,68,-99.99,,,0.01,weatherlink.com 1.10,2017-06-25 02:38:00,